(216104) = 1995 SL13 = 2006 RA44

Discovered at Kitt Peak on 2006-09-14 by Spacewatch.

Orbit

Orbit type: Main Belt

Note: WebGL enabled browser required.

epoch2023-02-25.0
epoch JD2460000.5
perihelion date2020-11-06.81601
perihelion JD2459160.31601
argument of perihelion (°)132.18532
ascending node (°)173.42166
inclination (°)5.21042
eccentricity0.2422114
perihelion distance (AU)1.7919458
Tisserand w.r.t. Jupiter3.5
ΔV w.r.t. Earth (km/sec)8.5
semimajor axis (AU)2.3647040
mean anomaly (°)227.72624
mean daily motion (°/day)0.27104330
aphelion distance (AU)2.937
period (years)3.64
P-vector [x]0.58257277
P-vector [y]-0.76991640
P-vector [z]-0.26045673
Q-vector [x]0.81271196
Q-vector [y]0.55590725
Q-vector [z]0.17454625
absolute magnitude17.96
phase slope0.15
uncertainty0
referenceMPEC 2023-E73
observations used244
oppositions12
arc length (days)10038
first opposition used1995
last opposition used2023
residual rms (arc-secs)0.79
perturbers coarse indicatorM-v
perturbers precise indicator003Ek
first observation date used1995-09-18.0
last observation date used2023-03-13.0
computer nameMPCLINUX
JD of orbit computation2456581.608827
perihelion JD uncertainty (days)3.8066E-05
argument of perihelion uncertainty (°)4.3695E-05
ascending node uncertainty (°)4.1587E-05
inclination uncertainty (°)5.2851E-06
eccentricity uncertainty 4.1183E-08
perihelion distance uncertainty (AU)9.9514E-08
Minimum Orbit Intersection Distances (in AU)
for orbit epoch: 2459200.5, reference: E2021-B55
Mercury1.36004
Venus1.06947
Earth0.77838
Mars0.42009
Jupiter2.33254
Saturn6.21408
Uranus15.5276
Neptune27.3466

Observations

247 total observations over interval: 1995 09 18.20163 – 2023 03 13.235868
These data are available for download (format description).

Date (UT) J2000 RA J2000 Dec Magn Location Ref
1995 09 18.20163 23 35 52.26 -02 43 23.3 19.0 V 691 – Steward Observatory, Kitt Peak-Spacewatch MPC 25818
1995 09 18.22248 23 35 51.26 -02 43 35.6   691 – Steward Observatory, Kitt Peak-Spacewatch MPC 25818
1995 09 18.23611 23 35 50.40 -02 43 33.6 19.1 V 809 – European Southern Observatory, La Silla MPS 33968
1995 09 18.24349 23 35 50.25 -02 43 48.1   691 – Steward Observatory, Kitt Peak-Spacewatch MPC 25818
1995 09 20.18264 23 34 24.29 -03 02 28.8 19.7 V 809 – European Southern Observatory, La Silla MPS 33968
1995 09 22.35733 23 32 50.04 -03 23 18.7 19.8 V 691 – Steward Observatory, Kitt Peak-Spacewatch MPC 25818
1995 09 22.37837 23 32 49.01 -03 23 30.7   691 – Steward Observatory, Kitt Peak-Spacewatch MPC 25818
1995 09 22.39930 23 32 48.05 -03 23 42.5   691 – Steward Observatory, Kitt Peak-Spacewatch MPC 25818
2005 03 08.33786 11 33 52.34 +02 26 08.5 20.3 R G96 – Mt. Lemmon Survey MPS 182528
2005 03 08.34447 11 33 51.99 +02 26 11.7 21.0 R G96 – Mt. Lemmon Survey MPS 182528
2005 03 08.35103 11 33 51.58 +02 26 13.8 20.4 R G96 – Mt. Lemmon Survey MPS 182528
2005 03 08.35759 11 33 51.21 +02 26 17.5 20.0 R G96 – Mt. Lemmon Survey MPS 182528
2005 03 12.26401 11 30 16.06 +02 56 52.4 20.8 R 695 – Kitt Peak MPS 182528
2005 03 12.34700 11 30 11.35 +02 57 31.3   695 – Kitt Peak MPS 182528
2005 04 04.27465 11 10 20.21 +05 48 11.5 20.9 R G96 – Mt. Lemmon Survey MPS 182528
2005 04 04.28094 11 10 19.91 +05 48 13.8 21.8 R G96 – Mt. Lemmon Survey MPS 182528
2005 04 04.28727 11 10 19.58 +05 48 16.1 21.1 R G96 – Mt. Lemmon Survey MPS 182528
2005 04 04.29359 11 10 19.30 +05 48 18.5 21.4 R G96 – Mt. Lemmon Survey MPS 182528
2006 09 14.37178 01 21 24.90 +06 11 01.4   691 – Steward Observatory, Kitt Peak-Spacewatch MPS 179531
2006 09 14.39594 01 21 24.05 +06 10 50.3   691 – Steward Observatory, Kitt Peak-Spacewatch MPS 179531
2006 09 14.41322 01 21 23.47 +06 10 42.1   691 – Steward Observatory, Kitt Peak-Spacewatch MPS 179531
2006 09 18.31667 01 19 05.62 +05 39 12.5 20.3 V 691 – Steward Observatory, Kitt Peak-Spacewatch MPS 179531
2006 09 18.33403 01 19 04.89 +05 39 03.9 20.3 V 691 – Steward Observatory, Kitt Peak-Spacewatch MPS 179531
2006 09 18.35138 01 19 04.18 +05 38 55.5 20.4 V 691 – Steward Observatory, Kitt Peak-Spacewatch MPS 179531
2006 09 25.30751 01 14 03.24 +04 37 59.2 20.0 V 691 – Steward Observatory, Kitt Peak-Spacewatch MPS 181230
2006 09 25.32493 01 14 02.37 +04 37 50.0 20.0 V 691 – Steward Observatory, Kitt Peak-Spacewatch MPS 181230
2006 09 25.34229 01 14 01.49 +04 37 40.5 20.2 V 691 – Steward Observatory, Kitt Peak-Spacewatch MPS 181230
2006 10 02.25829 01 08 15.11 +03 34 08.0   691 – Steward Observatory, Kitt Peak-Spacewatch MPS 182837
2006 10 02.27568 01 08 14.16 +03 33 58.7   691 – Steward Observatory, Kitt Peak-Spacewatch MPS 182837
2006 10 02.29308 01 08 13.20 +03 33 49.2   691 – Steward Observatory, Kitt Peak-Spacewatch MPS 182837
2006 10 16.23175 00 56 11.04 +01 32 48.8 19.2 V 703 – Catalina Sky Survey MPS 183023
2006 10 16.23978 00 56 10.57 +01 32 45.5 20.9 V 703 – Catalina Sky Survey MPS 183023
2006 10 16.24781 00 56 10.17 +01 32 42.0 19.6 V 703 – Catalina Sky Survey MPS 183023
2006 10 16.25586 00 56 09.88 +01 32 36.6 20.0 V 703 – Catalina Sky Survey MPS 183023
2006 10 20.36155 00 52 57.15 +01 02 08.6 21.8   705 – Apache Point MPS 198736
2006 10 20.36237 00 52 57.11 +01 02 08.3 20.6 V 705 – Apache Point MPS 198736
2006 10 21.22783 00 52 19.23 +00 56 08.5 20.2 R 644 – Palomar Mountain/NEAT MPS 185510
2006 10 21.24816 00 52 18.32 +00 56 00.2 20.7 R 644 – Palomar Mountain/NEAT MPS 185510
2006 10 21.26846 00 52 17.34 +00 55 52.3 20.5 R 644 – Palomar Mountain/NEAT MPS 185510
2006 10 22.27737 00 51 33.76 +00 49 03.9 19.8 V 703 – Catalina Sky Survey MPS 184122
2006 10 22.28384 00 51 33.44 +00 49 02.0 21.1 V 703 – Catalina Sky Survey MPS 184122
2006 10 22.29032 00 51 33.26 +00 48 58.5 20.7 V 703 – Catalina Sky Survey MPS 184122
2006 10 22.29678 00 51 32.83 +00 48 56.8 20.6 V 703 – Catalina Sky Survey MPS 184122
2006 10 23.27062 00 50 52.18 +00 42 37.0 20.9   705 – Apache Point MPS 198736
2006 10 23.27146 00 50 52.15 +00 42 36.7 20.3 V 705 – Apache Point MPS 198736
2006 10 28.27321 00 47 43.36 +00 13 33.4 21.5   705 – Apache Point MPS 198736
2006 10 28.27403 00 47 43.33 +00 13 33.1 20.6 V 705 – Apache Point MPS 198736
2006 10 29.26245 00 47 10.46 +00 08 31.7 21.5   705 – Apache Point MPS 198736
2006 10 29.26329 00 47 10.43 +00 08 31.5 20.7 V 705 – Apache Point MPS 198736
2006 10 31.27027 00 46 08.39 -00 00 55.2 21.3   705 – Apache Point MPS 212003
2006 10 31.27109 00 46 08.36 -00 00 55.4 20.6 V 705 – Apache Point MPS 212003
2006 11 09.26346 00 42 53.81 -00 30 40.5 21.7   705 – Apache Point MPS 198178
2006 11 09.26595 00 42 53.77 -00 30 40.8 21.0 V 705 – Apache Point MPS 198178
2006 11 13.26627 00 42 12.58 -00 37 21.7 22.0   705 – Apache Point MPS 198178
2006 11 13.26959 00 42 12.56 -00 37 22.0 21.1 V 705 – Apache Point MPS 198178
2006 11 14.26421 00 42 06.73 -00 38 24.8 22.1   705 – Apache Point MPS 198178
2006 11 14.26753 00 42 06.71 -00 38 25.1 21.2 V 705 – Apache Point MPS 198178
2006 11 17.26581 00 41 59.71 -00 40 07.5 22.2   705 – Apache Point MPS 198736
2006 11 17.26912 00 41 59.68 -00 40 07.6 21.3 V 705 – Apache Point MPS 198736
2006 11 20.26019 00 42 08.46 -00 39 43.0 22.2   705 – Apache Point MPS 198736
2006 11 20.26351 00 42 08.46 -00 39 42.9 21.4 V 705 – Apache Point MPS 198736
2006 11 24.25181 00 42 44.15 -00 36 00.3 22.2   705 – Apache Point MPS 198736
2006 11 24.25513 00 42 44.18 -00 36 00.1 21.4 V 705 – Apache Point MPS 198736
2009 04 20.22647 14 25 06.68 -07 58 45.4 20.3 V 691 – Steward Observatory, Kitt Peak-Spacewatch MPS 284403
2009 04 20.24411 14 25 05.73 -07 58 37.2 20.4 V 691 – Steward Observatory, Kitt Peak-Spacewatch MPS 284403
2009 04 20.26174 14 25 04.76 -07 58 29.3 20.4 V 691 – Steward Observatory, Kitt Peak-Spacewatch MPS 284403
2009 04 24.21078 14 21 28.00 -07 27 56.3   691 – Steward Observatory, Kitt Peak-Spacewatch MPS 284403
2009 04 24.22846 14 21 27.09 -07 27 48.2   691 – Steward Observatory, Kitt Peak-Spacewatch MPS 284403
2009 04 24.24614 14 21 26.01 -07 27 41.2   691 – Steward Observatory, Kitt Peak-Spacewatch MPS 284403
2009 05 26.28973 13 54 54.39 -04 18 16.2 20.8 V G96 – Mt. Lemmon Survey MPS 287402
2009 05 26.29898 13 54 54.03 -04 18 15.2 20.6 V G96 – Mt. Lemmon Survey MPS 287402
2009 05 26.30837 13 54 53.71 -04 18 13.1 20.3 V G96 – Mt. Lemmon Survey MPS 287402
2010 11 09.541260 04 48 23.267 +14 38 03.56 21.76 w F51 – Pan-STARRS 1, Haleakala MPS 365261
2010 11 09.559430 04 48 22.257 +14 37 59.47 21.73 w F51 – Pan-STARRS 1, Haleakala MPS 365261
2010 11 09.577642 04 48 21.248 +14 37 55.46 21.75 w F51 – Pan-STARRS 1, Haleakala MPS 365261
2010 11 09.595822 04 48 20.262 +14 37 51.36 21.76 w F51 – Pan-STARRS 1, Haleakala MPS 365261
2010 11 17.507289 04 40 41.595 +14 09 15.84 21.19 i F51 – Pan-STARRS 1, Haleakala MPS 365261
2010 11 17.518989 04 40 40.839 +14 09 13.13 21.17 i F51 – Pan-STARRS 1, Haleakala MPS 365261
2010 12 01.24667 04 25 52.75 +13 26 19.6 20.5 V G96 – Mt. Lemmon Survey MPS 362454
2010 12 01.25348 04 25 52.32 +13 26 17.9 20.8 V G96 – Mt. Lemmon Survey MPS 362454
2010 12 01.26038 04 25 51.85 +13 26 16.9 20.0 V G96 – Mt. Lemmon Survey MPS 362454
2010 12 01.26713 04 25 51.38 +13 26 16.2 20.3 V G96 – Mt. Lemmon Survey MPS 362454
2012 02 23.24093 09 55 15.99 +09 15 12.8 21.4 V G96 – Mt. Lemmon Survey MPS 425821
2012 02 23.24846 09 55 15.56 +09 15 15.3 21.3 V G96 – Mt. Lemmon Survey MPS 425821
2012 02 23.25602 09 55 15.13 +09 15 18.1 21.8 V G96 – Mt. Lemmon Survey MPS 425821
2012 02 23.26359 09 55 14.70 +09 15 21.5 22.7 V G96 – Mt. Lemmon Survey MPS 425821
2013 07 07.60287 20 29 31.52 -08 56 03.4 20.1 V E12 – Siding Spring Survey MPS 472028
2013 07 07.61425 20 29 31.20 -08 56 04.9 19.2 V E12 – Siding Spring Survey MPS 472028
2013 07 07.62587 20 29 30.91 -08 56 06.6 18.9 V E12 – Siding Spring Survey MPS 472028
2013 07 07.63735 20 29 30.55 -08 56 08.0 18.7 V E12 – Siding Spring Survey MPS 472028
2013 07 19.40491 20 22 46.262 -09 37 04.30 18.7 i F51 – Pan-STARRS 1, Haleakala MPS 472929
2013 07 19.41572 20 22 45.780 -09 37 07.43 18.7 i F51 – Pan-STARRS 1, Haleakala MPS 472929
